Location: Marcé
(47.5801°N, 0.3280°W)
Time: 22:02:50
(UTC+01:00)

Transit 2A - Pass Details

Date: 09 December 2021
Orbit: 591 x 967 km, 66.7° (Epoch: 23 January)

Event Time Altitude Azimuth Distance (km) Brightness Sun altitude
Rises 07:11:00 0° 326° (NW) 3,653 - -13.9°
Exits shadow 07:13:11 - 332° (NNW) 2,912 8.6 -13.5°
Reaches altitude 10° 07:13:47 10° 334° (NNW) 2,715 8.4 -13.4°
Maximum altitude 07:19:44 39° 42° (NE) 1,418 7.6 -12.5°
Drops below altitude 10° 07:25:30 10° 110° (ESE) 2,634 10.3 -11.6°
Sets 07:28:10 0° 118° (ESE) 3,534 11.6 -11.1°
